User: anonymous   Login
Location: Maiden
(35.5760°N, 81.2120°W)
Time: 01:29:14
(UTC-04:00)
Language:

Cosmos 2151 - Orbit

View from above orbital plane
View from above orbital plane
View from above satellite
View from above satellite

Ground track
Ground track

The orbit data is extracted from the following two-line orbital elements,

1 21422U 91042A   16212.90081425  .00000209  00000-0  18244-4 0  9992
2 21422  82.5001 192.1458 0012731 289.7826  70.2021 14.91664347360607
Epoch (UTC): 30 July 2016 21:37:10
Eccentricity: 0.0012731
inclination: 82.5001°
perigee height: 584 km
apogee height: 601 km
right ascension of ascending node: 192.1458°
argument of perigee: 289.7826°
revolutions per day: 14.91664347
mean anomaly at epoch: 70.2021°
orbit number at epoch: 36060

The dashed part of the orbit path shows where the satellite is in the earth's shadow,  

DLR